| time (UTC) | temp F | wind direction | speed knots | gust knots | rain 1hr in | rain 24hr in | rain mn in | humidity % | barometer mb |
| 20260504050617 | 64 | 90 | 0.9 | 0.9 | 0.00 | 0.00 | 0.00 | 56 | 1017.6 |
| 20260504045641 | 63 | 180 | 0.9 | 2.6 | 0.00 | 0.00 | 0.00 | 61 | 1018.0 |
| 20260504044637 | 63 | 45 | 0.9 | 0.9 | 0.00 | 0.00 | 0.00 | 61 | 1017.9 |
| 20260504043641 | 63 | 135 | 0.9 | 0.9 | 0.00 | 0.00 | 0.00 | 60 | 1017.7 |
| 20260504042617 | 62 | 0.0 | 1.7 | 0.00 | 0.00 | 0.00 | 60 | 1017.8 | |
| 20260504041641 | 63 | 0.0 | 0.9 | 0.00 | 0.00 | 0.00 | 60 | 1017.9 | |
| 20260504040617 | 63 | 0.0 | 0.9 | 0.00 | 0.00 | 0.00 | 59 | 1017.8 | |
| 20260504035641 | 63 | 0.0 | 0.9 | 0.00 | 0.00 | 0.00 | 58 | 1018.1 | |
| 20260504034617 | 64 | 0.0 | 0.9 | 0.00 | 0.00 | 0.00 | 53 | 1017.9 | |
| 20260504033641 | 64 | 0.0 | 0.0 | 0.00 | 0.00 | 0.00 | 53 | 1017.7 | |
| 20260504032637 | 64 | 0.0 | 0.9 | 0.00 | 0.00 | 0.00 | 52 | 1017.8 | |
| 20260504031641 | 65 | 0.0 | 0.9 | 0.00 | 0.00 | 0.00 | 51 | 1017.6 | |
| 20260504030617 | 65 | 0.0 | 0.9 | 0.00 | 0.00 | 0.00 | 51 | 1017.7 | |
| 20260504025641 | 65 | 135 | 0.9 | 1.7 | 0.00 | 0.00 | 0.00 | 51 | 1017.5 |
| 20260504024637 | 66 | 0.0 | 0.9 | 0.00 | 0.00 | 0.00 | 50 | 1017.8 | |
| 20260504023701 | 66 | 0.0 | 0.9 | 0.00 | 0.00 | 0.00 | 50 | 1017.4 | |
| 20260504022617 | 67 | 0.0 | 0.9 | 0.00 | 0.00 | 0.00 | 49 | 1017.7 | |
| 20260504021641 | 67 | 0.0 | 0.9 | 0.00 | 0.00 | 0.00 | 47 | 1017.7 | |
| 20260504020617 | 68 | 135 | 0.9 | 0.9 | 0.00 | 0.00 | 0.00 | 45 | 1017.4 |
| 20260504015641 | 68 | 90 | 0.9 | 0.9 | 0.00 | 0.00 | 0.00 | 45 | 1017.4 |
| 20260504014617 | 69 | 293 | 0.9 | 1.7 | 0.00 | 0.00 | 0.00 | 44 | 1017.4 |
| 20260504013701 | 69 | 135 | 0.9 | 0.9 | 0.00 | 0.00 | 0.00 | 43 | 1017.3 |
| 20260504012617 | 70 | 0 | 0.9 | 0.9 | 0.00 | 0.00 | 0.00 | 41 | 1017.4 |
| 20260504011641 | 71 | 90 | 0.9 | 1.7 | 0.00 | 0.00 | 0.00 | 41 | 1017.5 |
| 20260504010637 | 72 | 90 | 0.9 | 1.7 | 0.00 | 0.00 | 0.00 | 40 | 1017.1 |
| 20260504005701 | 73 | 135 | 0.9 | 1.7 | 0.00 | 0.00 | 0.00 | 36 | 1017.2 |
| 20260504004638 | 74 | 90 | 0.9 | 0.9 | 0.00 | 0.00 | 0.00 | 34 | 1017.1 |
| 20260504003641 | 75 | 135 | 2.6 | 4.3 | 0.00 | 0.00 | 0.00 | 33 | 1017.2 |
| 20260504002637 | 76 | 135 | 1.7 | 2.6 | 0.00 | 0.00 | 0.00 | 34 | 1017.2 |
| 20260504001641 | 78 | 180 | 1.7 | 2.6 | 0.00 | 0.00 | 0.00 | 32 | 1017.1 |
| 20260504000617 | 80 | 270 | 2.6 | 3.5 | 0.00 | 0.00 | 0.00 | 30 | 1017.3 |
| 20260503235701 | 80 | 90 | 0.9 | 1.7 | 0.00 | 0.00 | 0.00 | 30 | 1017.4 |
| 20260503234617 | 80 | 135 | 1.7 | 2.6 | 0.00 | 0.00 | 0.00 | 30 | 1017.3 |
| 20260503233641 | 82 | 0 | 1.7 | 2.6 | 0.00 | 0.00 | 0.00 | 25 | 1017.3 |
| 20260503232617 | 82 | 68 | 4.3 | 5.2 | 0.00 | 0.00 | 0.00 | 24 | 1017.4 |
| 20260503231641 | 83 | 225 | 4.3 | 6.1 | 0.00 | 0.00 | 0.00 | 23 | 1017.4 |
| 20260503230617 | 83 | 180 | 1.7 | 2.6 | 0.00 | 0.00 | 0.00 | 24 | 1017.5 |
| 20260503225641 | 84 | 90 | 0.9 | 2.6 | 0.00 | 0.00 | 0.00 | 23 | 1017.7 |
| 20260503224617 | 84 | 135 | 0.9 | 2.6 | 0.00 | 0.00 | 0.00 | 23 | 1017.6 |
| 20260503223641 | 85 | 270 | 2.6 | 3.5 | 0.00 | 0.00 | 0.00 | 22 | 1017.9 |
| 20260503222617 | 85 | 135 | 1.7 | 2.6 | 0.00 | 0.00 | 0.00 | 23 | 1017.9 |
| 20260503221702 | 85 | 225 | 2.6 | 3.5 | 0.00 | 0.00 | 0.00 | 22 | 1018.0 |
| 20260503220617 | 85 | 90 | 1.7 | 2.6 | 0.00 | 0.00 | 0.00 | 24 | 1018.1 |
| 20260503215641 | 85 | 180 | 2.6 | 4.3 | 0.00 | 0.00 | 0.00 | 25 | 1018.0 |
| 20260503214617 | 85 | 180 | 2.6 | 4.3 | 0.00 | 0.00 | 0.00 | 23 | 1018.2 |
| 20260503213701 | 86 | 135 | 2.6 | 4.3 | 0.00 | 0.00 | 0.00 | 25 | 1018.3 |
| 20260503212617 | 85 | 90 | 2.6 | 3.5 | 0.00 | 0.00 | 0.00 | 24 | 1018.5 |
| 20260503211642 | 85 | 0 | 0.9 | 1.7 | 0.00 | 0.00 | 0.00 | 25 | 1018.7 |
| 20260503210617 | 86 | 135 | 1.7 | 2.6 | 0.00 | 0.00 | 0.00 | 23 | 1018.7 |
| 20260503205701 | 85 | 180 | 4.3 | 6.1 | 0.00 | 0.00 | 0.00 | 26 | 1019.0 |
| 20260503204617 | 84 | 270 | 4.3 | 6.1 | 0.00 | 0.00 | 0.00 | 25 | 1019.2 |
| 20260503203641 | 84 | 270 | 3.5 | 6.1 | 0.00 | 0.00 | 0.00 | 29 | 1019.3 |
| 20260503202617 | 85 | 68 | 1.7 | 3.5 | 0.00 | 0.00 | 0.00 | 26 | 1019.6 |
| 20260503201641 | 85 | 135 | 1.7 | 2.6 | 0.00 | 0.00 | 0.00 | 29 | 1019.7 |
| 20260503200617 | 84 | 270 | 1.7 | 2.6 | 0.00 | 0.00 | 0.00 | 25 | 1020.0 |
| 20260503195641 | 85 | 225 | 0.9 | 1.7 | 0.00 | 0.00 | 0.00 | 25 | 1019.9 |
| 20260503194637 | 83 | 135 | 2.6 | 3.5 | 0.00 | 0.00 | 0.00 | 29 | 1020.2 |
| 20260503193641 | 82 | 225 | 6.1 | 7.8 | 0.00 | 0.00 | 0.00 | 23 | 1020.2 |
| 20260503192617 | 85 | 270 | 1.7 | 2.6 | 0.00 | 0.00 | 0.00 | 28 | 1020.7 |
| 20260503191641 | 84 | 180 | 2.6 | 6.1 | 0.00 | 0.00 | 0.00 | 29 | 1020.5 |
| 20260503190637 | 84 | 135 | 2.6 | 4.3 | 0.00 | 0.00 | 0.00 | 30 | 1020.7 |
| 20260503185641 | 83 | 90 | 1.7 | 2.6 | 0.00 | 0.00 | 0.00 | 30 | 1020.7 |
| 20260503184617 | 82 | 45 | 0.9 | 2.6 | 0.00 | 0.00 | 0.00 | 31 | 1021.0 |
| 20260503183641 | 83 | 90 | 1.7 | 2.6 | 0.00 | 0.00 | 0.00 | 30 | 1020.9 |
| 20260503182617 | 82 | 225 | 6.1 | 7.8 | 0.00 | 0.00 | 0.00 | 30 | 1021.2 |
| 20260503181641 | 80 | 315 | 3.5 | 6.1 | 0.00 | 0.00 | 0.00 | 30 | 1021.4 |
| 20260503180617 | 82 | 90 | 1.7 | 2.6 | 0.00 | 0.00 | 0.00 | 31 | 1021.7 |
| 20260503175641 | 82 | 225 | 6.1 | 8.7 | 0.00 | 0.00 | 0.00 | 31 | 1021.8 |
| 20260503174617 | 80 | 225 | 4.3 | 6.1 | 0.00 | 0.00 | 0.00 | 36 | 1022.0 |
| 20260503173641 | 80 | 270 | 1.7 | 2.6 | 0.00 | 0.00 | 0.00 | 37 | 1022.0 |
| 20260503172617 | 79 | 135 | 2.6 | 3.5 | 0.00 | 0.00 | 0.00 | 36 | 1022.2 |
| 20260503171641 | 81 | 180 | 4.3 | 6.1 | 0.00 | 0.00 | 0.00 | 38 | 1022.3 |
| 20260503170637 | 80 | 270 | 1.7 | 2.6 | 0.00 | 0.00 | 0.00 | 40 | 1022.4 |
| 20260503150617 | 73 | 225 | 3.5 | 4.3 | 0.00 | 0.00 | 0.00 | 40 | 1022.8 |
| 20260503130637 | 57 | 135 | 0.9 | 1.7 | 0.00 | 0.00 | 0.00 | 84 | 1022.9 |
| 20260503110657 | 49 | 0.0 | 0.0 | 0.00 | 0.00 | 0.00 | 85 | 1021.9 | |
| 20260503080129 | 53 | 0.0 | 0.0 | 0.00 | 0.00 | 0.00 | 74 | 1021.7 | |
| 20260503072131 | 52 | 0.0 | 0.9 | 0.00 | 0.00 | 0.00 | 78 | 1021.8 | |
| 20260503071127 | 52 | 0.0 | 0.0 | 0.00 | 0.00 | 0.00 | 76 | 1021.8 | |
| 20260503070131 | 52 | 0.0 | 0.9 | 0.00 | 0.00 | 0.00 | 74 | 1021.8 | |
| 20260503060131 | 55 | 0.0 | 0.0 | 0.00 | 0.00 | 0.00 | 66 | 1021.9 | |
| 20260503055127 | 56 | 0.0 | 0.0 | 0.00 | 0.00 | 0.00 | 65 | 1021.7 | |
| 20260503054131 | 56 | 0.0 | 0.9 | 0.00 | 0.00 | 0.00 | 65 | 1021.7 |